Location: Andrest
(43.3200°N, 0.0641°E)
Time: 21:46:35
(UTC+00:00)

NOSS 3-2 (C) - Pass Details

Date: 01 December 2020
Orbit: 789 x 1424 km, 63.4° (Epoch: 09 January)

Event Time Altitude Azimuth Distance (km) Brightness Sun altitude
Rises 18:06:42 0° 188° (S) 3,299 6.6 -18.0°
Reaches altitude 10° 18:09:11 10° 179° (S) 2,410 5.7 -18.4°
Maximum altitude 18:14:11 36° 114° (ESE) 1,356 3.9 -19.3°
Enters shadow 18:15:13 34° 92° (E) 1,439 3.9 -19.5°
